www.pogodaiklimat.ru

Погода и климат >> Архив погоды >> Франция >> Амберьё-ан-Бюже


ПОГОДА в Амберьё-ан-Бюже

  • Прогноз погоды в Амберьё-ан-Бюже
  • Монитор погоды в Амберьё-ан-Бюже

АРХИВ ПОГОДЫ в Амберьё-ан-Бюже

Время (UTC), дата Ветер
(напр.,м/с)
 
Видим.   Явления Облачность Т
(С)
Тd
(С)
f
(%)
Тe
(С)
Тes
(С)
Комфортность P
(гПа)
Po
(гПа)
Тmin
(С)
Tmax
(С)
R
(мм)
R24
(мм)
S
(см)
19 10.06 СВ 1 20 км дождь н/о +12.1 +11.6 97 +12 +12 1015.2 985.3 0.2
20 10.06 СВ 1 17 км слаб. дождь н/о +11.6 +11.0 96 +11 +11 1015.0 985.0 0.2
21 10.06 С 1
{3}
20 км н/о +11.6 +11.0 96 +11 +11 1014.9 984.9 0.6 0
22 10.06 С 1 20 км н/о +10.5 +9.4 93 +10 +10 1014.7 984.6
23 10.06 С 1 20 км н/о +10.5 +9.7 95 +10 +10 1014.6 984.5
00 11.06 В 1
{3}
20 км н/о +10.7 +9.9 95 +11 +11 1014.3 984.2 0
01 11.06 В 1 18 км слаб. дождь н/о +10.3 +9.7 96 +11 +11 1014.2 984.1 0.4
02 11.06 С 1 14 км слаб. дождь н/о +10.6 +10.1 97 +11 +11 1013.6 983.6 0.4
03 11.06 С 1
{2}
7000 м слаб. дождь н/о +10.6 +10.3 98 +11 +11 1013.3 983.3 2 0
04 11.06 С 1 18 км н/о +10.1 +9.6 97 +10 +10 1012.5 982.4 0.6
05 11.06 ЮВ 1 8000 м слаб. дождь н/о +10.3 +10.0 98 +11 +11 1012.6 982.6 0.4
06 11.06 С 1
{3}
20 км н/о +10.3 +9.8 97 +11 +11 1012.2 982.2 +9.9 +12.5 4 0
07 11.06 штиль 0 20 км дождь н/о +10.5 +9.7 95 +10 +10 1012.5 982.5 0.0
08 11.06 В 1 9000 м слаб. дождь н/о +11.0 +10.2 95 +11 +11 1012.5 982.5 0.8
09 11.06 СЗ 1
{4}
20 км н/о +11.6 +10.7 94 +11 +11 1012.6 982.7 1 0
10 11.06 С 1 20 км н/о +12.1 +10.2 88 +12 +12 1012.7 982.8 0.0
11 11.06 штиль 0 20 км сильн. дождь н/о +13.4 +10.2 81 +13 +13 1012.3 982.6 0.0
12 11.06 З 1
{3}
20 км слаб. дождь н/о +13.4 +10.7 84 +14 +14 1012.2 982.5 0.0 0
13 11.06 ЮЗ 1 12 км слаб. дождь н/о +13.2 +10.6 84 +14 +14 1012.1 982.4 0.4
14 11.06 ЮЗ 1 13 км слаб. дождь н/о +13.1 +11.0 87 +14 +14 1012.5 982.8 0.2
15 11.06 Ю 1
{3}
11 км слаб. дождь н/о +12.7 +11.1 90 +13 +13 1012.5 982.7 1 0
16 11.06 Ю 1 10 км слаб. дождь н/о +12.8 +11.7 93 +13 +13 1012.3 982.5 0.4
17 11.06 ЮЗ 1 11 км слаб. дождь н/о +12.6 +11.8 95 +13 +13 1012.1 982.3 0.6
18 11.06 ЮЗ 1
{2}
10 км слаб. дождь н/о +12.6 +11.8 95 +13 +13 1012.0 982.2 +10.2 +13.8 2 0
19 11.06 Ю 1 7000 м слаб. дождь н/о +12.3 +11.7 96 +13 +13 1012.1 982.3 1
20 11.06 Ю 1 7000 м слаб. дождь н/о +11.4 +10.6 95 +12 +12 1012.7 982.8 1
21 11.06 ЮЗ 1
{2}
8000 м слаб. дождь н/о +11.0 +10.4 96 +11 +11 1012.6 982.6 4 0
22 11.06 Ю 1 12 км слаб. дождь н/о +10.8 +10.3 97 +11 +11 1012.7 982.7 0.6
23 11.06 штиль 0 14 км слаб. дождь н/о +10.7 +10.2 97 +10 +10 1012.1 982.1 1
00 12.06 ЮЗ 1
{2}
5000 м дождь н/о +10.6 +10.3 98 +11 +11 1012.2 982.2 3 0
01 12.06 ЮВ 1 2900 м сильн. дождь н/о +10.8 +10.5 98 +11 +11 1012.4 982.4 4
02 12.06 Ю 1 4300 м дождь н/о +10.6 +10.3 98 +10 +10 1012.8 982.8 6
03 12.06 Ю 1
{5}
7000 м дождь н/о +10.5 +10.2 98 +10 +10 1013.4 983.4 13 0
04 12.06 Ю 1 17 км н/о +9.8 +9.3 97 +10 +10 1013.7 983.6 1
05 12.06 ЮВ 1 19 км н/о +10.0 +9.7 98 +10 +10 1013.5 983.4
06 12.06 Ю 1
{3}
20 км н/о +10.9 +9.3 90 +11 +11 1013.6 983.6 +8.8 +12.8 21 0
07 12.06 Ю 1 20 км н/о +12.9 +8.4 74 +13 +13 1013.6 983.8
08 12.06 Ю 2 20 км н/о +14.3 +7.3 63 +14 +14 1013.3 983.6
09 12.06 Ю 1
{7}
20 км н/о +15.1 +8.8 66 +16 +16 1013.3 983.7 0
10 12.06 Ю 2 19 км н/о +16.7 +9.1 61 +17 +17 1013.3 983.9
11 12.06 Ю 2 20 км н/о +17.0 +8.2 56 +18 +18 1013.0 983.6
12 12.06 Ю 2
{8}
20 км н/о +19.0 +8.6 51 +20 +20 1012.4 983.2 0
13 12.06 Ю 2 19 км н/о +19.2 +7.6 47 +21 +21 комфорт 1012.2 983.0
14 12.06 Ю 2 20 км н/о +20.6 +7.9 44 +22 +22 комфорт 1012.0 983.0
15 12.06 ЮЗ 2
{9}
20 км н/о +21.4 +8.0 42 +22 +22 комфорт 1011.8 982.9 0
16 12.06 ЮЗ 2 20 км н/о +21.3 +8.9 45 +23 +23 комфорт 1011.7 982.8
17 12.06 З 2 20 км н/о +21.1 +8.7 45 +22 +22 комфорт 1011.8 982.8
18 12.06 З 2
{6}
20 км н/о +19.7 +8.1 47 +21 +21 комфорт 1012.3 983.2 +11.0 +21.8 0
19 12.06 З 2 20 км н/о +18.5 +7.0 47 +20 +20 1013.1 983.8
20 12.06 В 1 20 км н/о +16.4 +7.3 55 +18 +18 1013.9 984.4
21 12.06 ЮВ 1
{3}
20 км н/о +15.0 +8.2 64 +16 +16 1014.9 985.3 0
22 12.06 ЮВ 1 20 км н/о +14.7 +8.6 67 +15 +15 1015.6 985.9
23 12.06 ЮВ 1 20 км н/о +13.9 +8.7 71 +14 +14 1015.8 986.0
00 13.06 В 1
{3}
20 км н/о +12.4 +8.9 79 +12 +12 1016.0 986.1 0
01 13.06 ЮВ 1 20 км н/о +12.0 +7.9 76 +12 +12 1016.0 986.0
02 13.06 ЮВ 1 20 км н/о +10.9 +7.8 81 +11 +11 1016.1 986.0
03 13.06 ЮВ 1
{4}
20 км н/о +10.0 +7.1 82 +10 +10 1016.0 985.8 0
04 13.06 В 1 20 км н/о +8.5 +6.5 87 +8 +8 1016.3 985.9
05 13.06 СВ 1 20 км н/о +9.7 +7.1 84 +9 +9 1016.6 986.3
06 13.06 СВ 1
{3}
20 км н/о +12.2 +8.3 77 +13 +13 1016.3 986.3 +7.7 +20.1 0
07 13.06 ЮВ 1 20 км н/о +15.7 +7.5 58 +17 +17 1016.0 986.4
08 13.06 З 1 20 км н/о +17.3 +9.2 59 +19 +19 1015.8 986.4
09 13.06 Ю 1
{4}
20 км н/о +19.1 +9.6 54 +21 +21 комфорт 1015.7 986.4 0
10 13.06 Ю 1 20 км н/о +21.5 +7.3 40 +22 +22 комфорт 1014.7 985.7
11 13.06 Ю 2 20 км н/о +22.3 +3.4 29 +22 +22 комфорт 1014.2 985.3
12 13.06 Ю 2
{7}
20 км н/о +23.4 +6.2 33 +24 +24 комфорт 1013.8 985.0 0
13 13.06 Ю 2 20 км н/о +23.9 +8.3 37 +24 +24 комфорт 1013.3 984.6
14 13.06 ЮЗ 2 20 км н/о +25.1 +8.6 35 +26 +26 жарко 1012.7 984.1
15 13.06 Ю 2
{9}
19 км н/о +25.4 +7.0 31 +25 +25 комфорт 1012.2 983.6 0
16 13.06 Ю 2 20 км н/о +25.3 +6.5 30 +25 +25 комфорт 1011.8 983.2
17 13.06 Ю 2 19 км н/о +25.5 +8.5 34 +26 +26 жарко 1011.3 982.8
18 13.06 Ю 2
{8}
20 км н/о +24.4 +7.9 35 +25 +25 комфорт 1011.6 983.0 +12.3 +25.8 0
19 13.06 Ю 1 20 км н/о +22.4 +7.4 38 +23 +23 комфорт 1012.1 983.3
20 13.06 ЮВ 1 20 км н/о +19.1 +9.3 53 +21 +21 комфорт 1013.3 984.1
21 13.06 ЮВ 1
{5}
20 км н/о +18.1 +8.6 54 +19 +19 1013.6 984.3 0
22 13.06 ЮВ 1 20 км н/о +17.5 +7.8 53 +19 +19 1013.9 984.5
23 13.06 ЮВ 2 20 км н/о +17.8 +8.1 53 +19 +19 1013.9 984.6
00 14.06 ЮВ 1
{5}
20 км н/о +16.7 +8.1 57 +18 +18 1014.1 984.6 0
01 14.06 ЮВ 1 20 км н/о +16.0 +8.2 60 +17 +17 1013.2 983.7
02 14.06 В 1 20 км н/о +15.8 +9.5 66 +17 +17 1013.1 983.6
03 14.06 ЮВ 1
{3}
20 км н/о +16.5 +8.2 58 +17 +17 1013.0 983.6 0
04 14.06 В 1 20 км н/о +15.6 +9.5 67 +17 +17 1013.6 984.1
05 14.06 В 1 18 км слаб. дождь н/о +15.0 +11.2 78 +16 +16 1014.0 984.4 0.6
06 14.06 СВ 1
{5}
20 км слаб. дождь н/о +14.6 +12.8 89 +15 +15 1016.0 986.3 +14.0 +24.4 0.8 0
07 14.06 В 1 11 км дождь н/о +14.1 +12.7 91 +14 +14 1017.5 987.7 2
08 14.06 ЮВ 1 15 км дождь н/о +14.5 +12.7 89 +15 +15 1017.5 987.8 0.4
09 14.06 В 1
{4}
18 км слаб. дождь н/о +14.5 +13.0 91 +15 +15 1015.6 985.9 6 0
10 14.06 С 1 19 км слаб. дождь н/о +14.7 +13.7 94 +16 +16 1015.6 986.0 1
11 14.06 В 1 19 км слаб. дождь н/о +15.4 +14.4 94 +17 +17 1015.7 986.1 0.2
12 14.06 С 2
{6}
18 км н/о +17.9 +15.7 87 +18 +18 1013.4 984.2 1 0
13 14.06 С 2 19 км н/о +21.2 +16.2 73 +25 +25 комфорт 1012.2 983.3
14 14.06 С 2 19 км н/о +22.6 +17.3 72 +27 +27 душно 1011.0 982.3
15 14.06 С 2
{7}
19 км н/о +24.0 +16.5 63 +27 +27 жарко 1009.4 980.9 0
16 14.06 С 3 20 км н/о +22.2 +18.0 77 +27 +27 душно 1008.8 980.1
17 14.06 СЗ 2 20 км н/о +18.9 +16.1 84 +21 +21 комфорт 1009.9 980.9
18 14.06 С 3
{9}
20 км н/о +17.6 +15.8 89 +18 +18 1009.2 980.1 +14.0 +24.2 0
19 14.06 С 2 20 км н/о +17.2 +15.0 87 +17 +17 1010.5 981.3
20 14.06 С 2 20 км н/о +17.1 +14.6 85 +18 +18 1011.3 982.0
21 14.06 С 1
{5}
20 км н/о +16.7 +14.7 88 +18 +18 1012.0 982.7 0
22 14.06 С 2 20 км н/о +16.5 +14.5 88 +17 +17 1013.2 983.8
23 14.06 З 2 3900 м сильн. дождь н/о +16.2 +14.2 88 +17 +17 1016.1 986.6 2
00 15.06 С 2
{6}
7000 м дождь н/о +14.2 +13.2 94 +14 +14 1015.7 986.0 9 0
01 15.06 СВ 1 10 км дождь н/о +14.1 +13.3 95 +15 +15 1015.7 986.0 2
02 15.06 СВ 1 20 км н/о +13.9 +13.3 96 +15 +15 1015.8 986.1 1
03 15.06 СВ 1
{2}
10 км слаб. дождь н/о +14.0 +13.5 97 +15 +15 1016.1 986.4 5 0
04 15.06 СВ 1 20 км н/о +13.9 +13.6 98 +15 +15 1016.2 986.5 0.6
05 15.06 С 1 20 км н/о +14.0 +13.7 98 +15 +15 1016.8 987.0
06 15.06 С 1
{3}
20 км н/о +14.2 +13.9 98 +15 +15 1017.2 987.5 +13.5 +17.8 14 0
07 15.06 С 1 20 км н/о +16.0 +14.4 90 +17 +17 1017.9 988.3
08 15.06 С 1 20 км н/о +17.9 +13.8 77 +20 +20 1017.8 988.4
09 15.06 С 2
{6}
20 км н/о +20.0 +13.5 66 +23 +23 комфорт 1017.2 988.0 0
10 15.06 С 2 19 км н/о +20.7 +13.9 65 +24 +24 комфорт 1017.1 988.0
11 15.06 С 2 20 км н/о +21.0 +13.7 63 +24 +24 комфорт 1016.4 987.4
12 15.06 С 3
{9}
20 км н/о +22.0 +14.6 63 +25 +25 комфорт 1015.9 987.0 0
13 15.06 С 3 20 км н/о +19.8 +13.0 65 +22 +22 комфорт 1015.2 986.1
14 15.06 СЗ 5 2200 м сильн. дождь н/о +13.3 +12.5 95 +11 +11 1019.5 989.6 25
15 15.06 В 1
{5}
18 км дождь н/о +14.1 +13.8 98 +14 +14 1020.2 990.4 28 0
16 15.06 Ю 1 20 км н/о +15.2 +14.4 95 +16 +16 1018.7 989.0 2
17 15.06 Ю 2 20 км н/о +15.3 +13.1 87 +15 +15 1019.8 990.1
18 15.06 З 1
{9}
20 км н/о +15.4 +13.8 90 +17 +17 1020.2 990.5 +12.8 +22.2 2 0
19 15.06 штиль 0 20 км н/о +15.7 +13.4 86 +15 +15 1020.3 990.6
20 15.06 штиль 0 20 км н/о +14.0 +12.7 92 +14 +14 1021.0 991.1
21 15.06 ЮВ 1
{2}
19 км н/о +12.9 +12.3 96 +14 +14 1021.8 991.8 0
22 15.06 С 1 15 км н/о +12.7 +12.2 97 +13 +13 1022.3 992.2
23 15.06 СВ 1 4500 м дымка н/о +12.4 +11.9 97 +13 +13 1022.2 992.1 0.0
00 16.06 ЮВ 1
{2}
7000 м н/о +12.5 +12.3 99 +13 +13 1022.4 992.3 0.2 0
01 16.06 штиль 0 14 км н/о +12.5 +12.2 98 +12 +12 1022.5 992.4
02 16.06 штиль 0 4900 м дымка н/о +12.0 +11.5 97 +11 +11 1022.4 992.3
03 16.06 С 1
{2}
100 м туман н/о +10.8 +10.3 97 +11 +11 1022.6 992.3 0.0 0
04 16.06 СВ 1 5000 м н/о +10.9 +10.7 99 +10 +10 1022.9 992.6
05 16.06 СВ 1 17 км н/о +12.2 +12.0 99 +12 +12 1022.7 992.6
06 16.06 С 2
{5}
19 км н/о +13.3 +13.0 98 +13 +13 1022.7 992.7 +10.6 +16.4 0.2 0
07 16.06 С 2 20 км н/о +15.7 +12.6 82 +16 +16 1022.6 992.8
08 16.06 С 3 20 км н/о +17.9 +13.6 76 +18 +18 1022.0 992.5
09 16.06 С 3
{8}
19 км н/о +18.5 +13.4 72 +19 +19 1021.7 992.3 0
10 16.06 С 2 20 км н/о +19.7 +13.6 68 +22 +22 комфорт 1021.4 992.1
11 16.06 С 3 20 км н/о +20.4 +13.4 64 +23 +23 комфорт 1021.0 991.8
12 16.06 С 3
{10}
20 км н/о +21.1 +13.5 62 +24 +24 комфорт 1020.5 991.3 0
13 16.06 С 3 19 км н/о +21.6 +13.0 58 +24 +24 комфорт 1020.1 991.0
14 16.06 С 4 19 км н/о +22.4 +13.7 58 +26 +26 жарко 1019.8 990.8
15 16.06 С 4
{11}
19 км н/о +22.3 +12.5 54 +25 +25 комфорт 1019.2 990.2 0
16 16.06 С 3 20 км н/о +22.5 +13.6 57 +26 +26 жарко 1018.7 989.7
17 16.06 С 4 20 км н/о +22.1 +12.9 56 +25 +25 комфорт 1018.8 989.8
18 16.06 С 3
{10}
20 км н/о +21.2 +12.6 58 +23 +23 комфорт 1018.7 989.6 +13.4 +22.9 0
19 16.06 С 2 20 км н/о +19.4 +12.2 63 +21 +21 комфорт 1018.7 989.4
20 16.06 С 1 20 км н/о +17.0 +12.1 73 +18 +18 1018.9 989.4
21 16.06 С 1
{3}
20 км н/о +15.4 +12.0 80 +16 +16 1019.2 989.5 0
22 16.06 СВ 1 20 км н/о +14.4 +11.7 84 +15 +15 1019.2 989.4
23 16.06 СВ 1 20 км н/о +13.5 +11.7 89 +14 +14 1019.1 989.2
00 17.06 В 1
{2}
19 км н/о +12.7 +11.3 91 +13 +13 1019.2 989.2 0
01 17.06 ЮВ 1 20 км н/о +11.1 +9.7 91 +12 +12 1019.4 989.2
02 17.06 С 1 13 км н/о +11.1 +10.6 97 +12 +12 1019.0 988.9
03 17.06 С 1
{2}
17 км н/о +10.7 +10.2 97 +11 +11 1019.1 988.9 0
04 17.06 С 1 11 км н/о +9.2 +8.6 96 +8 +8 1019.3 988.9
05 17.06 С 1 14 км н/о +11.0 +10.8 99 +11 +11 1018.9 988.7
06 17.06 СЗ 1
{2}
19 км н/о +13.4 +12.1 92 +14 +14 1018.8 988.9 +8.9 +21.0 0
07 17.06 Ю 1 20 км н/о +15.4 +12.3 82 +17 +17 1018.6 988.9
08 17.06 ЮЗ 1 20 км н/о +17.5 +13.6 78 +19 +19 1018.2 988.8
09 17.06 Ю 1
{5}
20 км н/о +19.6 +14.2 71 +22 +22 комфорт 1017.9 988.7 0
10 17.06 ЮЗ 1 19 км н/о +20.9 +13.8 64 +25 +25 комфорт 1017.6 988.5
11 17.06 ЮЗ 1 18 км н/о +22.0 +14.4 62 +25 +25 комфорт 1017.2 988.2
12 17.06 Ю 1
{4}
19 км н/о +23.5 +13.4 53 +26 +26 жарко 1016.5 987.7 0
13 17.06 СЗ 1 20 км н/о +24.6 +15.0 55 +27 +27 жарко 1016.3 987.6
14 17.06 СЗ 1 20 км н/о +25.4 +15.1 53 +28 +28 жарко 1015.7 987.1
15 17.06 СЗ 1
{5}
20 км н/о +26.1 +15.8 53 +29 +29 жарко 1014.9 986.4 0
16 17.06 СЗ 3
{5}
20 км н/о +26.1 +15.8 53 +29 +29 жарко 1014.4 985.9
17 17.06 СЗ 1 20 км н/о +26.3 +15.0 50 +29 +29 жарко 1014.4 985.9
18 17.06 СЗ 1
{3}
20 км н/о +25.7 +15.1 52 +29 +29 душно 1014.4 985.9 +13.6 +26.6 0

 

Местоположение метеостанции Амберьё-ан-Бюже (Франция): широта 45.98 долгота 5.33 высота над уровнем моря 253 м.

В архиве по умолчанию представлена погода в Амберьё-ан-Бюже за последнюю неделю. Архивные данные за месяц целиком и за предыдущие месяцы, начиная с января 2011 года, Вы можете получить, выбрав интересующий диапазон дат из раскрывающегося списка и нажав кнопку "Ввод!".


*Определитесь, кто Вы:
робот инопланетянин человек

Внимание! Время в таблицах - всемирное. Для получения местного времени необходимо прибавить поправку, которая равна 1 ч.

Смотрите также архив погоды в соседних городах и на ближайших метеорологических станциях:

Погода в Лионе (Франция) (34 км)
Погода в Лион аэропорту (Франция) (43 км)
Погода в Маконе (Франция) (54 км)
Погода в Шамбери (Франция) (57 км)
Погода в Анси (Франция) (61 км)
Погода в Гренобль аэропорту (Франция) (68 км)
Погода в Женеве (Швейцария) (69 км)
Погода в Ле Соваже (Франция) (74 км)
Погода на Ла Доли (Швейцария) (78 км)
Погода в Шарбоньере (Швейцария) (79 км)

Пояснения к столбцам:

Ветер - указаны скорость ветра в м/с - средняя за 10 мин, порывы в срок и между сроками (в фигурных скобках) и направление, откуда дует ветер: С - северный, СВ - северо-восточный, В - восточный, ЮВ - юго-восточный, Ю - южный, ЮЗ - юго-западный, З - западный, СЗ - северо-западный.
Видимость - горизонтальная дальность видимости в метрах или километрах. При видимости от 1 до 10 км при отсутствии осадков обычно наблюдается дымка, при ухудшении видимости до 1 км и менее - туман. В сухую погоду видимость может ухудшаться дымом, пылью или мглою.
Явления - указаны атмосферные явления, наблюдавшиеся в срок или в последний час перед сроком; фигурными скобками обозначены явления, наблюдавшиеся между сроками (за 1-3 часа до срока); квадратными скобками обозначены град или гололедные отложения с указанием их диаметра в мм.
Облачность - указаны через наклонную черту общая и нижняя облачность в баллах и высота нижней границы облаков в метрах; квадратными скобками обозначены формы облаков: Ci - перистые, Cs - перисто-слоистые, Cc - перисто-кучевые, Ac - высококучевые, As - высокослоистые, Sc - слоисто-кучевые, Ns - слоисто-дождевые, Cu - кучевые, Cb - кучево-дождевые. Подробнее классификацию облаков см. в Атласе облаков (PDF).
T - Температура воздуха - температура, измеренная на высоте 2 м над землей.
Td - Температура точки росы - температура, при понижении до которой содержащийся в воздухе водяной пар достигнет насыщения.
f - Относительная влажность воздуха - влажноcть воздуха, измеренная на высоте 2 м над землей.
Te - Эффективная температура - температура, которую ощущает одетый по сезону человек в тени. Характеристика душности погоды. При расчете учитывается влияние влажности воздуха и скорости ветра на теплоощущения человека.
Tes - Эффективная температура на солнце - температура, которую ощущает человек, с поправкой на солнечный нагрев. Характеристика знойности погоды. Зависит от высоты солнца над горизонтом, облачности и скорости ветра. Ночью, в пасмурную погоду, а также при ветре 12 м/с и более поправка равна нулю.
P - Атмосферное давление - приведенное к уровню моря атмосферное давление.
Po - Атмосферное давление - измеренное на уровне метеостанции атмосферное давление.
Tmin - Минимальная температура - минимум температуры воздуха на высоте 2 м над землей.
Tmax - Максимальная температура - максимум температуры воздуха на высоте 2 м над землей.
R - Количество осадков - Количество выпавших осадков за период времени, мм. При наведении курсора мыши на число - период времени, за который выпало указанное количество осадков.
R24 - Количество осадков - Количество выпавших осадков за 24 часа, мм.
S - Снежный покров - Высота снежного покрова, см. При наведении курсора мыши на число - состояние снежного покрова и степень покрытия местности в баллах.